,,,PA_Meas_PMT16A,,PR_Meas_QMR101_102,,RH_Meas_QMH101,,SR_Meas_QMS101,,TA_Meas_QMH101,,GenWind,,GenWind,
date,time,status,PA,status,PR,status,RH,status,SR,status,TA,status,DirAvg,status,SpdAvg,
2010-05-02, 00:00:04,VALID,1005.96,VALID,0,VALID,87.7321,VALID,0,VALID,26.1375,VALID,347,VALID,0.751953,
2010-05-02, 00:01:04,VALID,1005.96,VALID,0,VALID,87.7398,VALID,0,VALID,26.1375,VALID,3,VALID,0.748047,
2010-05-02, 00:02:04,VALID,1005.95,VALID,0,VALID,87.7321,VALID,0,VALID,26.118,VALID,347,VALID,0.519922,
2010-05-02, 00:03:04,VALID,1005.96,VALID,0,VALID,87.5567,VALID,0,VALID,26.1375,VALID,342,VALID,0.9375,
2010-05-02, 00:04:04,VALID,1005.93,VALID,0,VALID,87.5872,VALID,0,VALID,26.157,VALID,327,VALID,1.03398,
2010-05-02, 00:05:04,VALID,1005.92,VALID,0,VALID,87.4956,VALID,0,VALID,26.157,VALID,344,VALID,0.967969,
2010-05-02, 00:06:04,VALID,1005.94,VALID,0,VALID,87.4499,VALID,0,VALID,26.1375,VALID,354,VALID,0.60625,
2010-05-02, 00:07:04,VALID,1005.91,VALID,0,VALID,87.427,VALID,0,VALID,26.1375,VALID,303,VALID,0.673437,
2010-05-02, 00:08:04,VALID,1005.9,VALID,0,VALID,87.3278,VALID,0.100563,VALID,26.1375,VALID,351,VALID,0.785156,
2010-05-02, 00:09:04,VALID,1005.87,VALID,0,VALID,87.4804,VALID,0,VALID,26.1375,VALID,352,VALID,0.672656,
2010-05-02, 00:10:04,VALID,1005.84,VALID,0,VALID,87.5109,VALID,0,VALID,26.1375,VALID,342,VALID,0.164453,
2010-05-02, 00:11:04,VALID,1005.86,VALID,0,VALID,87.3888,VALID,0,VALID,26.0966,VALID,350,VALID,0.342187,
2010-05-02, 00:12:04,VALID,1005.82,VALID,0,VALID,87.4346,VALID,0,VALID,26.118,VALID,317,VALID,0.580859,
2010-05-02, 00:13:04,VALID,1005.82,VALID,0,VALID,87.4575,VALID,0,VALID,26.12,VALID,352,VALID,0.623828,
2010-05-02, 00:14:04,VALID,1005.83,VALID,0,VALID,87.6253,VALID,0,VALID,26.0985,VALID,355,VALID,0.130469,
2010-05-02, 00:15:04,VALID,1005.78,VALID,0,VALID,87.5872,VALID,0,VALID,26.0791,VALID,15,VALID,0.333984,
2010-05-02, 00:16:04,VALID,1005.81,VALID,0,VALID,87.7474,VALID,0,VALID,26.0596,VALID,13,VALID,0.490625,
2010-05-02, 00:17:04,VALID,1005.8,VALID,0,VALID,87.8618,VALID,0,VALID,26.0187,VALID,351,VALID,0.603906,
2010-05-02, 00:18:04,VALID,1005.79,VALID,0,VALID,87.9991,VALID,0,VALID,26.0012,VALID,345,VALID,0.446875,
2010-05-02, 00:19:04,VALID,1005.79,VALID,0,VALID,88.1365,VALID,0,VALID,25.9817,VALID,351,VALID,0.791797,
2010-05-02, 00:20:04,VALID,1005.77,VALID,0,VALID,88.1517,VALID,0,VALID,25.9642,VALID,345,VALID,0.557422,
2010-05-02, 00:21:04,VALID,1005.73,VALID,0,VALID,88.1059,VALID,0,VALID,25.9622,VALID,358,VALID,1.30078,
2010-05-02, 00:22:04,VALID,1005.72,VALID,0,VALID,88.2204,VALID,0,VALID,25.9622,VALID,328,VALID,0.746094,
2010-05-02, 00:23:04,VALID,1005.68,VALID,0,VALID,88.1059,VALID,0,VALID,25.9817,VALID,359,VALID,1.23164,
2010-05-02, 00:24:04,VALID,1005.67,VALID,0,VALID,87.8847,VALID,0,VALID,26.0206,VALID,341,VALID,1.18867,
2010-05-02, 00:25:04,VALID,1005.67,VALID,0,VALID,87.7245,VALID,0,VALID,26.0791,VALID,345,VALID,0.922656,
2010-05-02, 00:26:04,VALID,1005.61,VALID,0,VALID,87.6482,VALID,0,VALID,26.0791,VALID,343,VALID,0.790234,
2010-05-02, 00:27:04,VALID,1005.6,VALID,0,VALID,87.5719,VALID,0,VALID,26.0791,VALID,353,VALID,1.40781,
2010-05-02, 00:28:04,VALID,1005.62,VALID,0,VALID,87.488,VALID,0,VALID,26.1395,VALID,353,VALID,0.675391,
2010-05-02, 00:29:04,VALID,1005.57,VALID,0,VALID,87.3812,VALID,0,VALID,26.116,VALID,352,VALID,0.3625,
2010-05-02, 00:30:04,VALID,1005.56,VALID,0,VALID,87.4346,VALID,0,VALID,26.1375,VALID,352,VALID,0.810938,
2010-05-02, 00:31:04,VALID,1005.55,VALID,0,VALID,87.4041,VALID,0,VALID,26.1375,VALID,12,VALID,1.11016,
2010-05-02, 00:32:04,VALID,1005.56,VALID,0,VALID,87.4499,VALID,0,VALID,26.1375,VALID,354,VALID,0.601172,
2010-05-02, 00:33:04,VALID,1005.56,VALID,0,VALID,87.4346,VALID,0,VALID,26.118,VALID,351,VALID,0.862109,
2010-05-02, 00:34:04,VALID,1005.54,VALID,0,VALID,87.4804,VALID,0,VALID,26.116,VALID,349,VALID,0.551172,
2010-05-02, 00:35:04,VALID,1005.53,VALID,0,VALID,87.5185,VALID,0,VALID,26.118,VALID,339,VALID,0.378516,
2010-05-02, 00:36:04,VALID,1005.53,VALID,0,VALID,87.6329,VALID,0,VALID,26.0791,VALID,346,VALID,0.583203,
2010-05-02, 00:37:04,VALID,1005.51,VALID,0,VALID,87.7626,VALID,0,VALID,26.0596,VALID,349,VALID,0.555859,
2010-05-02, 00:38:04,VALID,1005.54,VALID,0,VALID,87.8389,VALID,0,VALID,26.0401,VALID,350,VALID,0.390625,
2010-05-02, 00:39:04,VALID,1005.55,VALID,0,VALID,87.9762,VALID,0,VALID,26.0012,VALID,10,VALID,0.550781,
2010-05-02, 00:40:04,VALID,1005.55,VALID,0,VALID,87.9839,VALID,0,VALID,25.9797,VALID,347,VALID,0.923437,
2010-05-02, 00:41:04,VALID,1005.53,VALID,0,VALID,88.0144,VALID,0,VALID,25.9817,VALID,339,VALID,0.601563,
2010-05-02, 00:42:04,VALID,1005.52,VALID,0,VALID,87.9991,VALID,0,VALID,26.0206,VALID,354,VALID,0.775,
2010-05-02, 00:43:04,VALID,1005.52,VALID,0,VALID,87.9686,VALID,0,VALID,26.0012,VALID,340,VALID,1.03086,
2010-05-02, 00:44:04,VALID,1005.49,VALID,0,VALID,87.9381,VALID,0,VALID,26.0206,VALID,352,VALID,0.725391,
2010-05-02, 00:45:04,VALID,1005.48,VALID,0,VALID,87.9686,VALID,0.100563,VALID,26.0401,VALID,348,VALID,0.394141,
2010-05-02, 00:46:04,VALID,1005.44,VALID,0,VALID,87.9991,VALID,0,VALID,25.9992,VALID,354,VALID,0.557813,
2010-05-02, 00:47:04,VALID,1005.43,VALID,0,VALID,87.9915,VALID,0,VALID,26.0187,VALID,344,VALID,0.412891,
2010-05-02, 00:48:04,VALID,1005.41,VALID,0,VALID,88.0296,VALID,0,VALID,26.0401,VALID,346,VALID,0.48125,
2010-05-02, 00:49:04,VALID,1005.4,VALID,0,VALID,88.0602,VALID,0,VALID,25.9992,VALID,354,VALID,0.826953,
2010-05-02, 00:50:04,VALID,1005.37,VALID,0,VALID,88.1288,VALID,0,VALID,25.9992,VALID,360,VALID,0.421094,
2010-05-02, 00:51:04,VALID,1005.38,VALID,0,VALID,88.1746,VALID,0,VALID,26.0401,VALID,335,VALID,0.758594,
2010-05-02, 00:52:04,VALID,1005.34,VALID,0,VALID,88.228,VALID,0,VALID,26.0401,VALID,354,VALID,1.06055,
2010-05-02, 00:53:04,VALID,1005.33,VALID,0,VALID,88.2509,VALID,0,VALID,26.0596,VALID,330,VALID,0.866797,
2010-05-02, 00:54:04,VALID,1005.33,VALID,0,VALID,88.289,VALID,0,VALID,26.0791,VALID,359,VALID,1.06914,
2010-05-02, 00:55:04,VALID,1005.32,VALID,0,VALID,88.1288,VALID,0,VALID,26.118,VALID,345,VALID,0.839063,
2010-05-02, 00:56:04,VALID,1005.31,VALID,0,VALID,88.0449,VALID,0,VALID,26.116,VALID,348,VALID,0.984375,
2010-05-02, 00:57:04,VALID,1005.29,VALID,0,VALID,88.022,VALID,0,VALID,26.157,VALID,349,VALID,0.642969,
2010-05-02, 00:58:04,VALID,1005.27,VALID,0,VALID,87.9686,VALID,0,VALID,26.157,VALID,346,VALID,0.696094,
2010-05-02, 00:59:04,VALID,1005.23,VALID,0,VALID,87.9686,VALID,0,VALID,26.157,VALID,348,VALID,0.430078,
2010-05-02, 01:00:04,VALID,1005.21,VALID,0,VALID,87.9762,VALID,0,VALID,26.1765,VALID,354,VALID,1.1832,
2010-05-02, 01:01:04,VALID,1005.23,VALID,0,VALID,87.9534,VALID,0,VALID,26.1745,VALID,355,VALID,0.834766,
2010-05-02, 01:02:04,VALID,1005.22,VALID,0,VALID,87.9839,VALID,0,VALID,26.1765,VALID,1,VALID,1.81875,
2010-05-02, 01:03:04,VALID,1005.2,VALID,0,VALID,87.9457,VALID,0,VALID,26.2174,VALID,350,VALID,0.904688,
2010-05-02, 01:04:04,VALID,1005.18,VALID,0,VALID,87.816,VALID,0,VALID,26.2154,VALID,349,VALID,1.00508,
2010-05-02, 01:05:04,VALID,1005.18,VALID,0,VALID,87.7779,VALID,0,VALID,26.2154,VALID,9,VALID,1.07773,
2010-05-02, 01:06:04,VALID,1005.18,VALID,0,VALID,87.7703,VALID,0,VALID,26.2369,VALID,3,VALID,1.40195,
2010-05-02, 01:07:04,VALID,1005.2,VALID,0,VALID,87.7092,VALID,0,VALID,26.2154,VALID,345,VALID,1.11758,
2010-05-02, 01:08:04,VALID,1005.17,VALID,0,VALID,87.6711,VALID,0,VALID,26.2349,VALID,354,VALID,0.743359,
2010-05-02, 01:09:04,VALID,1005.18,VALID,0,VALID,87.6177,VALID,0,VALID,26.2349,VALID,2,VALID,0.580078,
2010-05-02, 01:10:04,VALID,1005.18,VALID,0,VALID,87.694,VALID,0,VALID,26.2154,VALID,8,VALID,0.257422,
2010-05-02, 01:11:04,VALID,1005.16,VALID,0,VALID,87.7779,VALID,0,VALID,26.1959,VALID,7,VALID,0.508203,
2010-05-02, 01:12:04,VALID,1005.13,VALID,0,VALID,87.8771,VALID,0,VALID,26.1765,VALID,5,VALID,0.567969,
2010-05-02, 01:13:04,VALID,1005.1,VALID,0,VALID,88.0449,VALID,0,VALID,26.1375,VALID,29,VALID,0.302344,
2010-05-02, 01:14:04,VALID,1005.1,VALID,0,VALID,88.2356,VALID,0,VALID,26.0985,VALID,6,VALID,0.5875,
2010-05-02, 01:15:04,VALID,1005.09,VALID,0,VALID,88.3424,VALID,0,VALID,26.0791,VALID,358,VALID,0.633594,
2010-05-02, 01:16:04,VALID,1005.08,VALID,0,VALID,88.495,VALID,0,VALID,26.0401,VALID,358,VALID,0.405859,
2010-05-02, 01:17:04,VALID,1005.04,VALID,0,VALID,88.6552,VALID,0,VALID,26.0012,VALID,358,VALID,0.197656,
2010-05-02, 01:18:04,VALID,1005.05,VALID,0,VALID,88.8307,VALID,0,VALID,25.9622,VALID,358,VALID,0.164453,
2010-05-02, 01:19:04,VALID,1005.01,VALID,0,VALID,88.9222,VALID,0,VALID,25.9427,VALID,345,VALID,1.27969,
2010-05-02, 01:20:04,VALID,1005.01,VALID,0,VALID,88.8993,VALID,0,VALID,25.9408,VALID,342,VALID,0.365234,
2010-05-02, 01:21:04,VALID,1005.01,VALID,0,VALID,88.9299,VALID,0,VALID,25.9427,VALID,353,VALID,0.554297,
2010-05-02, 01:22:04,VALID,1005.01,VALID,0,VALID,89.0214,VALID,0,VALID,25.9427,VALID,349,VALID,0.484375,
2010-05-02, 01:23:04,VALID,1005.01,VALID,0,VALID,89.0214,VALID,0,VALID,25.9427,VALID,344,VALID,0.824609,
2010-05-02, 01:24:04,VALID,1005.01,VALID,0,VALID,89.0672,VALID,0,VALID,25.9232,VALID,355,VALID,0.682031,
2010-05-02, 01:25:04,VALID,1005,VALID,0,VALID,89.1816,VALID,0,VALID,25.9038,VALID,357,VALID,0.5,
2010-05-02, 01:26:04,VALID,1004.98,VALID,0,VALID,89.4028,VALID,0,VALID,25.8648,VALID,329,VALID,0.605859,
2010-05-02, 01:27:04,VALID,1005,VALID,0,VALID,89.6241,VALID,0,VALID,25.8453,VALID,355,VALID,0.563672,
2010-05-02, 01:28:04,VALID,1005,VALID,0,VALID,89.6699,VALID,0,VALID,25.8453,VALID,1,VALID,0.922266,
2010-05-02, 01:29:04,VALID,1005.01,VALID,0,VALID,89.6775,VALID,0,VALID,25.8648,VALID,352,VALID,0.633594,
2010-05-02, 01:30:04,VALID,1005.01,VALID,0,VALID,89.5173,VALID,0,VALID,25.8648,VALID,348,VALID,0.695703,
2010-05-02, 01:31:04,VALID,1004.99,VALID,0,VALID,89.4563,VALID,0,VALID,25.8843,VALID,343,VALID,0.526172,
2010-05-02, 01:32:04,VALID,1005,VALID,0,VALID,89.502,VALID,0,VALID,25.8648,VALID,353,VALID,0.68125,
2010-05-02, 01:33:04,VALID,1005.02,VALID,0,VALID,89.4715,VALID,0.100563,VALID,25.8843,VALID,342,VALID,0.731641,
2010-05-02, 01:34:04,VALID,1005,VALID,0,VALID,89.4105,VALID,0,VALID,25.8843,VALID,341,VALID,0.501953,
2010-05-02, 01:35:04,VALID,1005.01,VALID,0,VALID,89.4105,VALID,0,VALID,25.8648,VALID,337,VALID,0.366016,
2010-05-02, 01:36:04,VALID,1005,VALID,0,VALID,89.3418,VALID,0,VALID,25.9038,VALID,339,VALID,0.69375,
2010-05-02, 01:37:04,VALID,1004.96,VALID,0,VALID,89.3189,VALID,0,VALID,25.9038,VALID,340,VALID,1.01484,
2010-05-02, 01:38:04,VALID,1004.98,VALID,0,VALID,89.3266,VALID,0,VALID,25.9057,VALID,353,VALID,0.714844,
2010-05-02, 01:39:04,VALID,1004.96,VALID,0,VALID,89.1969,VALID,0,VALID,25.9038,VALID,360,VALID,1.28516,
2010-05-02, 01:40:04,VALID,1004.92,VALID,0,VALID,89.113,VALID,0,VALID,25.9427,VALID,345,VALID,0.489453,
2010-05-02, 01:41:04,VALID,1004.91,VALID,0,VALID,89.029,VALID,0,VALID,25.9427,VALID,25,VALID,0.390234,
2010-05-02, 01:42:04,VALID,1004.9,VALID,0,VALID,88.9375,VALID,0,VALID,25.9427,VALID,1,VALID,1.68125,
2010-05-02, 01:43:04,VALID,1004.84,VALID,0,VALID,88.6781,VALID,0,VALID,25.9622,VALID,357,VALID,0.685938,
2010-05-02, 01:44:04,VALID,1004.86,VALID,0,VALID,88.5103,VALID,0,VALID,26.0012,VALID,343,VALID,0.945703,
2010-05-02, 01:45:04,VALID,1004.83,VALID,0,VALID,88.4645,VALID,0,VALID,26.0012,VALID,4,VALID,0.539063,
2010-05-02, 01:46:04,VALID,1004.82,VALID,0,VALID,88.4874,VALID,0,VALID,25.9817,VALID,5,VALID,0.740625,
2010-05-02, 01:47:04,VALID,1004.81,VALID,0,VALID,88.4569,VALID,0,VALID,26.0012,VALID,350,VALID,0.829297,
2010-05-02, 01:48:04,VALID,1004.78,VALID,0,VALID,88.3653,VALID,0,VALID,26.0206,VALID,346,VALID,1.66016,
2010-05-02, 01:49:04,VALID,1004.78,VALID,0,VALID,88.2967,VALID,0,VALID,26.0421,VALID,354,VALID,1.11641,
2010-05-02, 01:50:04,VALID,1004.76,VALID,0,VALID,88.0983,VALID,0,VALID,26.0381,VALID,354,VALID,0.859375,
2010-05-02, 01:51:04,VALID,1004.73,VALID,0,VALID,88.022,VALID,0,VALID,26.0791,VALID,4,VALID,1.42734,
2010-05-02, 01:52:04,VALID,1004.74,VALID,0,VALID,88.0525,VALID,0,VALID,26.0791,VALID,352,VALID,0.648438,
2010-05-02, 01:53:04,VALID,1004.75,VALID,0,VALID,88.0449,VALID,0,VALID,26.0596,VALID,352,VALID,0.548437,
2010-05-02, 01:54:04,VALID,1004.73,VALID,0,VALID,88.0602,VALID,0,VALID,26.0791,VALID,354,VALID,0.796094,
2010-05-02, 01:55:04,VALID,1004.72,VALID,0,VALID,88.1288,VALID,0,VALID,26.0596,VALID,359,VALID,0.99375,
2010-05-02, 01:56:04,VALID,1004.72,VALID,0,VALID,88.0602,VALID,0,VALID,26.0596,VALID,347,VALID,0.654688,
2010-05-02, 01:57:04,VALID,1004.68,VALID,0,VALID,88.0754,VALID,0,VALID,26.0596,VALID,342,VALID,0.554297,
2010-05-02, 01:58:04,VALID,1004.66,VALID,0,VALID,87.9839,VALID,0,VALID,26.081,VALID,322,VALID,0.722656,
2010-05-02, 01:59:04,VALID,1004.62,VALID,0,VALID,87.9686,VALID,0,VALID,26.0791,VALID,344,VALID,0.924219,
2010-05-02, 02:00:04,VALID,1004.62,VALID,0,VALID,87.9762,VALID,0,VALID,26.0791,VALID,356,VALID,0.444141,
2010-05-02, 02:01:04,VALID,1004.6,VALID,0,VALID,87.8771,VALID,0,VALID,26.0791,VALID,352,VALID,0.694141,
2010-05-02, 02:02:04,VALID,1004.59,VALID,0,VALID,87.9762,VALID,0,VALID,26.0596,VALID,356,VALID,0.700781,
2010-05-02, 02:03:04,VALID,1004.58,VALID,0,VALID,87.9228,VALID,0,VALID,26.0616,VALID,338,VALID,0.853125,
2010-05-02, 02:04:04,VALID,1004.57,VALID,0,VALID,87.8923,VALID,0,VALID,26.0596,VALID,345,VALID,1.22656,
2010-05-02, 02:05:04,VALID,1004.57,VALID,0,VALID,87.9991,VALID,0,VALID,26.0401,VALID,350,VALID,0.703125,
2010-05-02, 02:06:04,VALID,1004.54,VALID,0,VALID,87.9076,VALID,0,VALID,26.0401,VALID,355,VALID,0.920313,
2010-05-02, 02:07:04,VALID,1004.5,VALID,0,VALID,87.755,VALID,0,VALID,26.0596,VALID,349,VALID,1.22266,
2010-05-02, 02:08:04,VALID,1004.5,VALID,0,VALID,87.7169,VALID,0,VALID,26.0791,VALID,4,VALID,0.739453,
2010-05-02, 02:09:04,VALID,1004.48,VALID,0,VALID,87.6711,VALID,0,VALID,26.0985,VALID,341,VALID,0.9,
2010-05-02, 02:10:04,VALID,1004.46,VALID,0,VALID,87.6863,VALID,0,VALID,26.0791,VALID,353,VALID,0.451172,
2010-05-02, 02:11:04,VALID,1004.47,VALID,0,VALID,87.5109,VALID,0,VALID,26.0791,VALID,347,VALID,1.13828,
2010-05-02, 02:12:04,VALID,1004.44,VALID,0,VALID,87.343,VALID,0,VALID,26.118,VALID,351,VALID,1.03711,
2010-05-02, 02:13:04,VALID,1004.47,VALID,0,VALID,87.1676,VALID,0,VALID,26.157,VALID,342,VALID,0.706641,
2010-05-02, 02:14:04,VALID,1004.42,VALID,0,VALID,87.1218,VALID,0,VALID,26.157,VALID,355,VALID,1.02969,
2010-05-02, 02:15:04,VALID,1004.41,VALID,0,VALID,87.1676,VALID,0,VALID,26.1784,VALID,346,VALID,0.941797,
2010-05-02, 02:16:04,VALID,1004.44,VALID,0,VALID,87.1828,VALID,0,VALID,26.157,VALID,348,VALID,0.6125,
2010-05-02, 02:17:04,VALID,1004.39,VALID,0,VALID,87.1371,VALID,0,VALID,26.1375,VALID,342,VALID,1.11484,
2010-05-02, 02:18:04,VALID,1004.4,VALID,0,VALID,87.1828,VALID,0,VALID,26.1375,VALID,354,VALID,0.904688,
2010-05-02, 02:19:04,VALID,1004.37,VALID,0,VALID,87.2439,VALID,0,VALID,26.1375,VALID,359,VALID,0.60625,
2010-05-02, 02:20:04,VALID,1004.37,VALID,0,VALID,87.2439,VALID,0,VALID,26.0985,VALID,339,VALID,0.677344,
2010-05-02, 02:21:04,VALID,1004.36,VALID,0,VALID,87.3888,VALID,0,VALID,26.0791,VALID,339,VALID,0.444922,
2010-05-02, 02:22:04,VALID,1004.31,VALID,0,VALID,87.6024,VALID,0,VALID,26.0401,VALID,345,VALID,0.667969,
2010-05-02, 02:23:04,VALID,1004.33,VALID,0,VALID,87.7855,VALID,0,VALID,26.0206,VALID,4,VALID,0.935938,
2010-05-02, 02:24:04,VALID,1004.31,VALID,0,VALID,87.8618,VALID,0,VALID,25.9817,VALID,347,VALID,0.719141,
2010-05-02, 02:25:04,VALID,1004.32,VALID,0,VALID,87.9839,VALID,0,VALID,25.9408,VALID,3,VALID,0.653906,
2010-05-02, 02:26:04,VALID,1004.29,VALID,0,VALID,88.0144,VALID,0,VALID,25.9232,VALID,348,VALID,0.795313,
2010-05-02, 02:27:04,VALID,1004.3,VALID,0,VALID,88.0525,VALID,0,VALID,25.9427,VALID,352,VALID,0.653125,
2010-05-02, 02:28:04,VALID,1004.28,VALID,0,VALID,88.1288,VALID,0,VALID,25.9232,VALID,352,VALID,0.747656,
2010-05-02, 02:29:04,VALID,1004.27,VALID,0,VALID,88.1822,VALID,0,VALID,25.8843,VALID,15,VALID,0.548437,
2010-05-02, 02:30:04,VALID,1004.25,VALID,0,VALID,88.3348,VALID,0,VALID,25.8648,VALID,354,VALID,0.697656,
2010-05-02, 02:31:04,VALID,1004.24,VALID,0,VALID,88.434,VALID,0,VALID,25.8453,VALID,351,VALID,0.379687,
2010-05-02, 02:32:04,VALID,1004.24,VALID,0,VALID,88.5103,VALID,0,VALID,25.785,VALID,9,VALID,0.284375,
2010-05-02, 02:33:04,VALID,1004.23,VALID,0,VALID,88.556,VALID,0,VALID,25.785,VALID,356,VALID,0.336328,
2010-05-02, 02:34:04,VALID,1004.22,VALID,0,VALID,88.5103,VALID,0,VALID,25.7869,VALID,356,VALID,0.425391,
2010-05-02, 02:35:04,VALID,1004.2,VALID,0,VALID,88.5026,VALID,0,VALID,25.7869,VALID,6,VALID,0.623828,
2010-05-02, 02:36:04,VALID,1004.21,VALID,0,VALID,88.4569,VALID,0,VALID,25.7674,VALID,355,VALID,0.565234,
2010-05-02, 02:37:04,VALID,1004.21,VALID,0,VALID,88.4721,VALID,0,VALID,25.7674,VALID,355,VALID,0.354297,
2010-05-02, 02:38:04,VALID,1004.22,VALID,0,VALID,88.5637,VALID,0,VALID,25.746,VALID,355,VALID,0.598437,
2010-05-02, 02:39:04,VALID,1004.2,VALID,0,VALID,88.7239,VALID,0,VALID,25.7285,VALID,355,VALID,0.408984,
2010-05-02, 02:40:04,VALID,1004.19,VALID,0,VALID,88.8078,VALID,0,VALID,25.6895,VALID,356,VALID,0.633203,
2010-05-02, 02:41:04,VALID,1004.18,VALID,0,VALID,88.9375,VALID,0,VALID,25.6506,VALID,2,VALID,0.720703,
2010-05-02, 02:42:04,VALID,1004.16,VALID,0,VALID,89.0672,VALID,0,VALID,25.6311,VALID,345,VALID,0.541016,
2010-05-02, 02:43:04,VALID,1004.14,VALID,0,VALID,89.0214,VALID,0,VALID,25.6116,VALID,342,VALID,0.559375,
2010-05-02, 02:44:04,VALID,1004.15,VALID,0,VALID,89.1282,VALID,0,VALID,25.6116,VALID,2,VALID,0.455469,
2010-05-02, 02:45:04,VALID,1004.16,VALID,0,VALID,89.2579,VALID,0,VALID,25.5727,VALID,2,VALID,0.524609,
2010-05-02, 02:46:04,VALID,1004.13,VALID,0,VALID,89.4181,VALID,0,VALID,25.5532,VALID,1,VALID,0.436328,
2010-05-02, 02:47:04,VALID,1004.11,VALID,0,VALID,89.6927,VALID,0,VALID,25.5337,VALID,334,VALID,0.389062,
2010-05-02, 02:48:04,VALID,1004.13,VALID,0,VALID,89.8072,VALID,0,VALID,25.5142,VALID,334,VALID,0.569531,
2010-05-02, 02:49:04,VALID,1004.1,VALID,0,VALID,90.0971,VALID,0,VALID,25.5142,VALID,356,VALID,0.948047,
2010-05-02, 02:50:04,VALID,1004.07,VALID,0,VALID,89.9674,VALID,0,VALID,25.5532,VALID,356,VALID,0.528125,
2010-05-02, 02:51:04,VALID,1004.08,VALID,0,VALID,89.9903,VALID,0,VALID,25.5727,VALID,5,VALID,0.642969,
2010-05-02, 02:52:04,VALID,1004.07,VALID,0,VALID,90.0971,VALID,0,VALID,25.5532,VALID,12,VALID,0.468359,
2010-05-02, 02:53:04,VALID,1004.05,VALID,0,VALID,90.3183,VALID,0,VALID,25.5532,VALID,7,VALID,0.658594,
2010-05-02, 02:54:04,VALID,1004.07,VALID,0,VALID,90.509,VALID,0,VALID,25.5727,VALID,357,VALID,1.06875,
2010-05-02, 02:55:04,VALID,1004.02,VALID,0,VALID,90.3565,VALID,0,VALID,25.6116,VALID,4,VALID,0.928125,
2010-05-02, 02:56:04,VALID,1004.01,VALID,0,VALID,90.1352,VALID,0,VALID,25.6311,VALID,20,VALID,0.698047,
2010-05-02, 02:57:04,VALID,1004,VALID,0,VALID,89.9598,VALID,0,VALID,25.6506,VALID,11,VALID,0.570703,
2010-05-02, 02:58:04,VALID,1003.98,VALID,0,VALID,89.9369,VALID,0,VALID,25.6506,VALID,348,VALID,0.470703,
2010-05-02, 02:59:04,VALID,1003.99,VALID,0,VALID,89.9598,VALID,0,VALID,25.6506,VALID,348,VALID,0.552734,
2010-05-02, 03:00:04,VALID,1003.96,VALID,0,VALID,89.9826,VALID,0,VALID,25.6311,VALID,350,VALID,0.761719,
2010-05-02, 03:01:04,VALID,1003.94,VALID,0,VALID,90.0437,VALID,0,VALID,25.6116,VALID,360,VALID,0.500391,
2010-05-02, 03:02:04,VALID,1003.93,VALID,0,VALID,90.1886,VALID,0,VALID,25.5902,VALID,2,VALID,0.585156,
2010-05-02, 03:03:04,VALID,1003.91,VALID,0,VALID,90.3946,VALID,0,VALID,25.5707,VALID,355,VALID,0.653516,
2010-05-02, 03:04:04,VALID,1003.91,VALID,0,VALID,90.4556,VALID,0,VALID,25.6116,VALID,20,VALID,0.426562,
2010-05-02, 03:05:04,VALID,1003.93,VALID,0,VALID,90.4862,VALID,0,VALID,25.5902,VALID,20,VALID,0.317969,
2010-05-02, 03:06:04,VALID,1003.92,VALID,0,VALID,90.5319,VALID,0,VALID,25.5921,VALID,27,VALID,0.53125,
2010-05-02, 03:07:04,VALID,1003.93,VALID,0,VALID,90.6769,VALID,0,VALID,25.5727,VALID,31,VALID,0.411719,
2010-05-02, 03:08:04,VALID,1003.95,VALID,0,VALID,91.1117,VALID,0,VALID,25.5532,VALID,17,VALID,0.910937,
2010-05-02, 03:09:04,VALID,1003.94,VALID,0,VALID,91.2948,VALID,0,VALID,25.5727,VALID,9,VALID,0.699609,
2010-05-02, 03:10:04,VALID,1003.93,VALID,0,VALID,91.3711,VALID,0,VALID,25.5941,VALID,20,VALID,0.9375,
2010-05-02, 03:11:04,VALID,1003.92,VALID,0,VALID,91.333,VALID,0.100563,VALID,25.5921,VALID,10,VALID,0.610547,
2010-05-02, 03:12:04,VALID,1003.91,VALID,0,VALID,91.1956,VALID,0,VALID,25.6116,VALID,19,VALID,0.766797,
2010-05-02, 03:13:04,VALID,1003.88,VALID,0,VALID,90.9286,VALID,0,VALID,25.6116,VALID,358,VALID,0.847656,
2010-05-02, 03:14:04,VALID,1003.87,VALID,0,VALID,90.7913,VALID,0,VALID,25.6097,VALID,359,VALID,1.05352,
2010-05-02, 03:15:04,VALID,1003.89,VALID,0,VALID,90.593,VALID,0,VALID,25.67,VALID,14,VALID,1.54961,
2010-05-02, 03:16:04,VALID,1003.85,VALID,0,VALID,90.1581,VALID,0,VALID,25.709,VALID,340,VALID,0.486719,
2010-05-02, 03:17:04,VALID,1003.85,VALID,0,VALID,90.0666,VALID,0,VALID,25.709,VALID,3,VALID,0.907422,
2010-05-02, 03:18:04,VALID,1003.85,VALID,0,VALID,89.9598,VALID,0,VALID,25.7285,VALID,359,VALID,0.499609,
2010-05-02, 03:19:04,VALID,1003.85,VALID,0,VALID,89.9521,VALID,0,VALID,25.6895,VALID,359,VALID,0.392188,
2010-05-02, 03:20:04,VALID,1003.84,VALID,0,VALID,90.0742,VALID,0,VALID,25.6895,VALID,9,VALID,0.461719,
2010-05-02, 03:21:04,VALID,1003.83,VALID,0,VALID,90.12,VALID,0,VALID,25.67,VALID,20,VALID,0.246094,
2010-05-02, 03:22:04,VALID,1003.8,VALID,0,VALID,90.2725,VALID,0,VALID,25.672,VALID,20,VALID,0.333594,
2010-05-02, 03:23:04,VALID,1003.79,VALID,0,VALID,90.5319,VALID,0,VALID,25.6311,VALID,17,VALID,0.421094,
2010-05-02, 03:24:04,VALID,1003.78,VALID,0,VALID,90.7837,VALID,0,VALID,25.5921,VALID,17,VALID,0.362109,
2010-05-02, 03:25:04,VALID,1003.77,VALID,0,VALID,91.0125,VALID,0,VALID,25.5513,VALID,17,VALID,0,
2010-05-02, 03:26:04,VALID,1003.76,VALID,0,VALID,91.333,VALID,0,VALID,25.5318,VALID,2,VALID,0.544922,
2010-05-02, 03:27:04,VALID,1003.76,VALID,0,VALID,91.4398,VALID,0,VALID,25.5532,VALID,19,VALID,0.720312,
2010-05-02, 03:28:04,VALID,1003.74,VALID,0,VALID,91.4703,VALID,0,VALID,25.5337,VALID,359,VALID,0.276953,
2010-05-02, 03:29:04,VALID,1003.74,VALID,0,VALID,91.661,VALID,0,VALID,25.5337,VALID,359,VALID,0.427734,
2010-05-02, 03:30:04,VALID,1003.75,VALID,0,VALID,91.6763,VALID,0,VALID,25.5142,VALID,359,VALID,0.269141,
2010-05-02, 03:31:04,VALID,1003.75,VALID,0,VALID,91.8212,VALID,0,VALID,25.4928,VALID,359,VALID,0.308203,
2010-05-02, 03:32:04,VALID,1003.78,VALID,0,VALID,91.9433,VALID,0,VALID,25.4948,VALID,359,VALID,0.267188,
2010-05-02, 03:33:04,VALID,1003.76,VALID,0,VALID,92.1111,VALID,0,VALID,25.4948,VALID,359,VALID,0.183984,
2010-05-02, 03:34:04,VALID,1003.8,VALID,0,VALID,92.0424,VALID,0,VALID,25.4539,VALID,359,VALID,0.142578,
2010-05-02, 03:35:04,VALID,1003.82,VALID,0,VALID,92.1569,VALID,0,VALID,25.4344,VALID,359,VALID,0.375391,
2010-05-02, 03:36:04,VALID,1003.8,VALID,0,VALID,92.34,VALID,0,VALID,25.4169,VALID,359,VALID,0.393359,
2010-05-02, 03:37:04,VALID,1003.8,VALID,0,VALID,92.7214,VALID,0,VALID,25.4169,VALID,355,VALID,0.445703,
2010-05-02, 03:38:04,VALID,1003.82,VALID,0,VALID,93.0723,VALID,0,VALID,25.3779,VALID,353,VALID,0.254687,
2010-05-02, 03:39:04,VALID,1003.81,VALID,0,VALID,93.2173,VALID,0,VALID,25.3798,VALID,353,VALID,0.526563,
2010-05-02, 03:40:04,VALID,1003.84,VALID,0,VALID,93.2859,VALID,0,VALID,25.2981,VALID,353,VALID,0.323828,
2010-05-02, 03:41:04,VALID,1003.84,VALID,0,VALID,93.4233,VALID,0,VALID,25.3,VALID,353,VALID,0.431641,
2010-05-02, 03:42:04,VALID,1003.86,VALID,0,VALID,93.4614,VALID,0,VALID,25.2806,VALID,353,VALID,0.407422,
2010-05-02, 03:43:04,VALID,1003.86,VALID,0,VALID,93.5224,VALID,0,VALID,25.2007,VALID,353,VALID,0.525,
2010-05-02, 03:44:04,VALID,1003.86,VALID,0,VALID,93.6826,VALID,0,VALID,25.2027,VALID,353,VALID,0.549609,
2010-05-02, 03:45:04,VALID,1003.85,VALID,0,VALID,93.9191,VALID,0,VALID,25.1637,VALID,354,VALID,1.01836,